RYR55WG LIME-EPGD

Flight info

Callsign RYR55WG
Flight time 1h 48m
Altitude 18000
Route OSKOR M985 TAGIP/N0430F360 DCT VESAL DCT MOBDO/N0430F370 DCT VERDA DCT NEMAL DCT BUDEX DCT LEGAZ DCT ATMIR P733 IRLUN
Aircraft B738/M-SDE2E3FGHIRWXY/LB1

Departure

Time 2026-05-04 09:25
Airport Il Caravaggio International Airport (LIME)

Arrival

Time 2026-05-04 11:13
Airport Gdańsk Lech Wałęsa Airport (EPGD)
Time Latitude Longitude Altitude Speed Heading
2026-05-04 08:49 45.66773 9.69397 786 ft 0 kts 195°
2026-05-04 09:14 45.66769 9.69396 786 ft 2 kts 195°
2026-05-04 09:15 45.66743 9.69369 786 ft 6 kts 244°
2026-05-04 09:15 45.66748 9.69311 786 ft 6 kts 285°
2026-05-04 09:15 45.66759 9.69255 786 ft 6 kts 285°
2026-05-04 09:15 45.66769 9.69198 786 ft 7 kts 284°
2026-05-04 09:17 45.66839 9.69475 786 ft 17 kts 105°
2026-05-04 09:18 45.66809 9.69640 786 ft 17 kts 105°
2026-05-04 09:18 45.66779 9.69800 786 ft 16 kts 105°
2026-05-04 09:18 45.66751 9.69953 786 ft 16 kts 105°
2026-05-04 09:18 45.66723 9.70100 786 ft 15 kts 105°
2026-05-04 09:19 45.66697 9.70240 786 ft 14 kts 105°
2026-05-04 09:19 45.66672 9.70375 786 ft 14 kts 105°
2026-05-04 09:19 45.66648 9.70504 786 ft 13 kts 105°
2026-05-04 09:19 45.66623 9.70642 786 ft 15 kts 105°
2026-05-04 09:20 45.66597 9.70781 786 ft 14 kts 105°
2026-05-04 09:20 45.66573 9.70914 786 ft 13 kts 105°
2026-05-04 09:20 45.66549 9.71039 786 ft 13 kts 105°
2026-05-04 09:20 45.66519 9.71158 786 ft 13 kts 114°
2026-05-04 09:21 45.66491 9.71276 786 ft 12 kts 104°
2026-05-04 09:21 45.66466 9.71407 786 ft 15 kts 105°
2026-05-04 09:21 45.66439 9.71566 786 ft 17 kts 94°
2026-05-04 09:21 45.66459 9.71729 786 ft 16 kts 75°
2026-05-04 09:22 45.66467 9.71886 786 ft 16 kts 106°
2026-05-04 09:22 45.66439 9.72035 786 ft 15 kts 104°
2026-05-04 09:22 45.66414 9.72178 786 ft 14 kts 104°
2026-05-04 09:22 45.66389 9.72313 786 ft 14 kts 104°
2026-05-04 09:23 45.66383 9.72443 786 ft 13 kts 52°
2026-05-04 09:23 45.66458 9.72428 786 ft 8 kts 308°
2026-05-04 09:23 45.66475 9.72353 786 ft 8 kts 285°
2026-05-04 09:23 45.66535 9.72033 786 ft 76 kts 285°
2026-05-04 09:25 45.63590 9.61734 6072 ft 201 kts 224°
2026-05-04 09:25 45.62583 9.60275 6649 ft 216 kts 223°
2026-05-04 09:26 45.61496 9.58698 7257 ft 229 kts 223°
2026-05-04 09:26 45.60390 9.57101 8250 ft 223 kts 223°
2026-05-04 09:26 45.59281 9.55533 9160 ft 223 kts 218°
2026-05-04 09:26 45.57918 9.54611 10007 ft 220 kts 189°
2026-05-04 09:27 45.56397 9.54721 10795 ft 224 kts 165°
2026-05-04 09:27 45.55023 9.55877 11520 ft 237 kts 137°
2026-05-04 09:27 45.54193 9.57914 12263 ft 249 kts 108°
2026-05-04 09:27 45.54183 9.60426 13010 ft 261 kts 77°
2026-05-04 09:28 45.55037 9.62759 13727 ft 272 kts 52°
2026-05-04 09:28 45.56384 9.64712 14410 ft 277 kts 46°
2026-05-04 09:28 45.57316 9.65972 14780 ft 278 kts 45°
2026-05-04 09:28 45.58723 9.67895 15479 ft 281 kts 46°
2026-05-04 09:29 45.60122 9.69860 16176 ft 283 kts 47°
2026-05-04 09:29 45.61519 9.71861 16887 ft 285 kts 47°
2026-05-04 09:29 45.62923 9.73889 17573 ft 287 kts 47°
2026-05-04 09:29 45.64283 9.75989 18230 ft 289 kts 59°
2026-05-04 09:30 45.65018 9.78626 18705 ft 290 kts 86°
2026-05-04 09:30 45.65112 9.81601 18871 ft 308 kts 94°
2026-05-04 09:30 45.65081 9.84736 19013 ft 329 kts 94°
2026-05-04 09:30 45.65035 9.88128 19158 ft 350 kts 94°
2026-05-04 09:31 45.64996 9.91718 19302 ft 370 kts 93°
2026-05-04 09:31 45.64970 9.95478 19632 ft 382 kts 93°
2026-05-04 09:31 45.64953 9.99272 20138 ft 387 kts 92°
2026-05-04 09:31 45.64939 10.03142 20770 ft 389 kts 92°
2026-05-04 09:32 45.64922 10.07046 21365 ft 393 kts 92°
2026-05-04 09:32 45.65145 10.10932 21853 ft 401 kts 77°
2026-05-04 09:34 45.76470 10.34797 25413 ft 426 kts 54°
2026-05-04 09:34 45.78181 10.38234 25872 ft 429 kts 54°
2026-05-04 09:34 45.79923 10.41736 26322 ft 432 kts 54°
2026-05-04 09:34 45.81678 10.45268 26749 ft 435 kts 54°
2026-05-04 09:35 45.83446 10.48832 27165 ft 438 kts 54°
2026-05-04 09:35 45.85220 10.52416 27583 ft 441 kts 54°
2026-05-04 09:35 45.86985 10.55987 27989 ft 444 kts 54°
2026-05-04 09:35 45.88783 10.59626 28389 ft 446 kts 54°
2026-05-04 09:37 46.01142 10.86080 30849 ft 464 kts 57°
2026-05-04 09:37 46.02892 10.90013 31175 ft 465 kts 57°
2026-05-04 09:38 46.04645 10.93941 31468 ft 467 kts 57°
2026-05-04 09:38 46.06413 10.97896 31736 ft 469 kts 57°
2026-05-04 09:38 46.08169 11.01819 32031 ft 471 kts 57°
2026-05-04 09:38 46.09946 11.05793 32375 ft 470 kts 57°
2026-05-04 09:39 46.11720 11.09763 32781 ft 469 kts 57°
2026-05-04 09:39 46.13490 11.13734 33187 ft 468 kts 57°
2026-05-04 09:39 46.15230 11.17639 33579 ft 467 kts 57°
2026-05-04 09:39 46.16984 11.21586 33914 ft 466 kts 57°
2026-05-04 09:40 46.18738 11.25537 34249 ft 466 kts 57°
2026-05-04 09:40 46.20486 11.29480 34550 ft 466 kts 57°
2026-05-04 09:40 46.22231 11.33422 34878 ft 464 kts 57°
2026-05-04 09:40 46.23970 11.37357 35181 ft 463 kts 57°
2026-05-04 09:41 46.25690 11.41253 35447 ft 463 kts 57°
2026-05-04 09:42 46.37690 11.68593 37360 ft 457 kts 57°
2026-05-04 09:43 46.39367 11.72516 37663 ft 456 kts 60°
2026-05-04 09:43 46.40872 11.76565 37901 ft 455 kts 62°
2026-05-04 09:43 46.42465 11.80532 38153 ft 454 kts 54°
2026-05-04 09:43 46.44432 11.84103 38371 ft 453 kts 44°
2026-05-04 09:44 46.46725 11.87267 38579 ft 452 kts 41°
2026-05-04 09:44 46.49036 11.90306 38823 ft 451 kts 41°
2026-05-04 09:44 46.51381 11.93357 39015 ft 451 kts 41°
2026-05-04 09:46 46.67644 12.15026 39173 ft 450 kts 42°
2026-05-04 09:46 46.72203 12.21188 39189 ft 449 kts 41°
2026-05-04 09:47 46.76789 12.27398 39176 ft 448 kts 42°
2026-05-04 09:49 46.95029 12.52246 39119 ft 449 kts 42°
2026-05-04 09:51 47.11033 12.74251 39075 ft 451 kts 42°
2026-05-04 09:51 47.15608 12.80576 39056 ft 451 kts 42°
2026-05-04 09:52 47.20180 12.86913 39051 ft 452 kts 42°
2026-05-04 09:52 47.24725 12.93228 39058 ft 452 kts 42°
2026-05-04 09:53 47.29308 12.99612 39043 ft 453 kts 42°
2026-05-04 09:53 47.33894 13.06015 39040 ft 454 kts 42°
2026-05-04 09:54 47.38448 13.12392 39033 ft 454 kts 42°
2026-05-04 09:54 47.43046 13.18847 39035 ft 454 kts 42°
2026-05-04 09:55 47.47604 13.25259 39045 ft 454 kts 42°
2026-05-04 09:55 47.52331 13.31438 39017 ft 451 kts 32°
2026-05-04 09:56 47.57925 13.35456 39043 ft 445 kts 14°
2026-05-04 09:56 47.63883 13.37935 39041 ft 445 kts 13°
2026-05-04 09:57 47.69826 13.40373 39044 ft 446 kts 13°
2026-05-04 09:57 47.75822 13.42916 39036 ft 447 kts 14°
2026-05-04 09:58 47.81773 13.45476 39039 ft 447 kts 14°
2026-05-04 09:58 47.87758 13.48055 39029 ft 448 kts 14°
2026-05-04 10:00 48.07442 13.62247 39037 ft 452 kts 26°
2026-05-04 10:00 48.10216 13.64490 39033 ft 453 kts 26°
2026-05-04 10:04 48.49213 13.96024 39026 ft 456 kts 26°
2026-05-04 10:04 48.54786 14.00576 39031 ft 457 kts 26°
2026-05-04 10:05 48.59440 14.04385 39023 ft 457 kts 26°
2026-05-04 10:05 48.65032 14.08974 39033 ft 457 kts 26°
2026-05-04 10:06 48.70646 14.13592 39030 ft 458 kts 26°
2026-05-04 10:06 48.76251 14.18215 39026 ft 458 kts 26°
2026-05-04 10:08 48.95969 14.33857 39011 ft 454 kts 14°
2026-05-04 10:08 49.02126 14.35724 39021 ft 450 kts
2026-05-04 10:09 49.08275 14.37230 39025 ft 449 kts
2026-05-04 10:09 49.14475 14.38792 39013 ft 450 kts
2026-05-04 10:10 49.20617 14.40397 39018 ft 450 kts
2026-05-04 10:10 49.26798 14.42037 39012 ft 449 kts
2026-05-04 10:11 49.32930 14.43670 39012 ft 449 kts
2026-05-04 10:11 49.39107 14.45318 39015 ft 449 kts
2026-05-04 10:12 49.45229 14.46953 39014 ft 449 kts
2026-05-04 10:12 49.51401 14.48607 39015 ft 449 kts
2026-05-04 10:13 49.57573 14.50264 39015 ft 449 kts
2026-05-04 10:13 49.63724 14.51920 39014 ft 448 kts
2026-05-04 10:14 49.69845 14.53572 39016 ft 448 kts
2026-05-04 10:16 49.94445 14.60256 39020 ft 448 kts
2026-05-04 10:16 50.00567 14.61931 39018 ft 448 kts
2026-05-04 10:17 50.06731 14.63620 39023 ft 448 kts
2026-05-04 10:19 50.31235 14.70383 39024 ft 447 kts
2026-05-04 10:19 50.37390 14.72092 39018 ft 447 kts
2026-05-04 10:20 50.43529 14.73802 39020 ft 447 kts
2026-05-04 10:20 50.49625 14.75504 39016 ft 447 kts
2026-05-04 10:21 50.55766 14.77224 39013 ft 447 kts
2026-05-04 10:21 50.61917 14.78953 39018 ft 447 kts
2026-05-04 10:22 50.67768 14.82277 39016 ft 453 kts 27°
2026-05-04 10:22 50.70420 14.85016 39015 ft 455 kts 34°
2026-05-04 10:23 50.75460 14.91037 39002 ft 456 kts 35°
2026-05-04 10:25 50.95690 15.15337 39004 ft 456 kts 35°
2026-05-04 10:25 51.00739 15.21384 39002 ft 456 kts 35°
2026-05-04 10:26 51.05813 15.27480 39002 ft 456 kts 35°
2026-05-04 10:26 51.10841 15.33538 39001 ft 456 kts 35°
2026-05-04 10:27 51.15897 15.39647 38998 ft 455 kts 35°
2026-05-04 10:27 51.20951 15.45772 38993 ft 455 kts 35°
2026-05-04 10:28 51.25966 15.51866 38993 ft 455 kts 35°
2026-05-04 10:28 51.31007 15.58009 38988 ft 454 kts 35°
2026-05-04 10:29 51.36030 15.64148 38991 ft 454 kts 35°
2026-05-04 10:29 51.41016 15.70258 38990 ft 453 kts 35°
2026-05-04 10:30 51.46029 15.76420 38995 ft 452 kts 35°
2026-05-04 10:30 51.50998 15.82544 38996 ft 452 kts 35°
2026-05-04 10:31 51.56011 15.88740 38989 ft 451 kts 35°
2026-05-04 10:32 51.73391 16.10360 38990 ft 451 kts 36°
2026-05-04 10:33 51.78329 16.16542 38992 ft 451 kts 36°
2026-05-04 10:33 51.83302 16.22785 38991 ft 451 kts 36°
2026-05-04 10:34 51.88266 16.29036 38988 ft 451 kts 36°
2026-05-04 10:34 51.93189 16.35253 38993 ft 452 kts 36°
2026-05-04 10:35 51.98148 16.41532 38989 ft 452 kts 36°
2026-05-04 10:35 52.03103 16.47825 38993 ft 452 kts 36°
2026-05-04 10:36 52.08067 16.54148 38993 ft 452 kts 36°
2026-05-04 10:36 52.12989 16.60436 38989 ft 451 kts 36°
2026-05-04 10:37 52.17939 16.66777 38993 ft 451 kts 36°
2026-05-04 10:37 52.22878 16.73123 38993 ft 451 kts 36°
2026-05-04 10:39 52.37589 16.92139 36501 ft 442 kts 36°
2026-05-04 10:39 52.39988 16.95254 36034 ft 439 kts 36°
2026-05-04 10:39 52.42378 16.98363 35581 ft 437 kts 36°
2026-05-04 10:40 52.44752 17.01456 35131 ft 435 kts 36°
2026-05-04 10:40 52.47114 17.04536 34696 ft 433 kts 36°
2026-05-04 10:40 52.49464 17.07607 34260 ft 431 kts 36°
2026-05-04 10:40 52.51769 17.10622 33812 ft 429 kts 36°
2026-05-04 10:41 52.54096 17.13670 33316 ft 427 kts 36°
2026-05-04 10:41 52.56412 17.16707 32834 ft 425 kts 36°
2026-05-04 10:41 52.58714 17.19732 32361 ft 423 kts 36°
2026-05-04 10:41 52.61008 17.22750 31895 ft 421 kts 36°
2026-05-04 10:42 52.63289 17.25754 31435 ft 419 kts 36°
2026-05-04 10:42 52.65560 17.28750 30984 ft 418 kts 37°
2026-05-04 10:42 52.67824 17.31741 30538 ft 416 kts 37°
2026-05-04 10:42 52.70077 17.34721 30101 ft 414 kts 37°
2026-05-04 10:43 52.72319 17.37691 29603 ft 413 kts 37°
2026-05-04 10:44 52.88144 17.57088 26237 ft 397 kts 32°
2026-05-04 10:45 52.90417 17.59661 25797 ft 395 kts 32°
2026-05-04 10:45 52.92679 17.62240 25339 ft 393 kts 32°
2026-05-04 10:45 52.94927 17.64817 24905 ft 392 kts 32°
2026-05-04 10:45 52.97162 17.67391 24473 ft 390 kts 32°
2026-05-04 10:46 52.99363 17.69932 24049 ft 388 kts 32°
2026-05-04 10:46 53.00866 17.71670 23772 ft 387 kts 32°
2026-05-04 10:46 53.03042 17.74192 23314 ft 385 kts 32°
2026-05-04 10:46 53.05235 17.76735 22837 ft 384 kts 32°
2026-05-04 10:47 53.07418 17.79268 22348 ft 382 kts 32°
2026-05-04 10:47 53.09592 17.81796 21866 ft 381 kts 32°
2026-05-04 10:47 53.11761 17.84320 21391 ft 379 kts 32°
2026-05-04 10:47 53.13918 17.86834 20941 ft 378 kts 32°
2026-05-04 10:49 53.28786 18.04249 18138 ft 366 kts 32°
2026-05-04 10:49 53.30861 18.06692 17796 ft 364 kts 32°
2026-05-04 10:50 53.32930 18.09129 17447 ft 361 kts 32°
2026-05-04 10:51 53.46662 18.26500 15113 ft 348 kts 36°
2026-05-04 10:52 53.48557 18.29018 14789 ft 346 kts 36°
2026-05-04 10:52 53.50447 18.31522 14482 ft 346 kts 36°
2026-05-04 10:52 53.52335 18.34024 14170 ft 345 kts 36°
2026-05-04 10:54 53.65718 18.50714 11928 ft 337 kts 31°
2026-05-04 10:54 53.67657 18.52916 11668 ft 334 kts 31°
2026-05-04 10:56 53.81224 18.66360 9975 ft 317 kts 20°
2026-05-04 10:56 53.83254 18.67861 9750 ft 318 kts 20°
2026-05-04 10:56 53.85285 18.69394 9478 ft 320 kts 21°
2026-05-04 10:57 53.87317 18.70954 9201 ft 320 kts 21°
2026-05-04 10:57 53.89315 18.72501 8937 ft 317 kts 22°
2026-05-04 10:57 53.91322 18.74062 8673 ft 315 kts 21°
2026-05-04 10:57 53.93307 18.75593 8408 ft 312 kts 19°
2026-05-04 10:58 53.95389 18.76387 8158 ft 304 kts 359°
2026-05-04 10:58 53.97496 18.76467 7928 ft 301 kts 357°
2026-05-04 10:58 53.99585 18.76513 7674 ft 299 kts 357°
2026-05-04 10:58 54.01666 18.76579 7429 ft 298 kts 357°
2026-05-04 10:59 54.03720 18.76667 7177 ft 297 kts 358°
2026-05-04 10:59 54.05781 18.76759 6929 ft 295 kts 358°
2026-05-04 10:59 54.07842 18.76855 6698 ft 294 kts 358°
2026-05-04 10:59 54.09881 18.76829 6452 ft 291 kts 347°
2026-05-04 11:00 54.11694 18.75597 6198 ft 282 kts 320°
2026-05-04 11:01 54.20742 18.63294 4975 ft 281 kts 29°
2026-05-04 11:02 54.22136 18.65618 5007 ft 283 kts 60°
2026-05-04 11:02 54.22730 18.68804 4978 ft 283 kts 89°
2026-05-04 11:05 54.18608 19.08175 3845 ft 271 kts 12°
2026-05-04 11:06 54.20445 19.08248 3680 ft 259 kts 341°
2026-05-04 11:06 54.22004 19.06940 3566 ft 246 kts 318°
2026-05-04 11:06 54.23166 19.04880 3418 ft 236 kts 300°
2026-05-04 11:06 54.23854 19.02454 3363 ft 225 kts 289°
2026-05-04 11:08 54.27928 18.86396 2994 ft 188 kts 289°
2026-05-04 11:10 54.31648 18.71508 2981 ft 194 kts 289°
2026-05-04 11:12 54.35259 18.56696 1398 ft 175 kts 289°
2026-05-04 11:12 54.35737 18.54813 1157 ft 165 kts 289°
2026-05-04 11:12 54.36150 18.53137 992 ft 144 kts 290°
2026-05-04 11:12 54.36524 18.51634 893 ft 135 kts 289°
2026-05-04 11:13 54.36902 18.50084 658 ft 141 kts 291°
2026-05-04 11:13 54.37275 18.48570 502 ft 135 kts 291°
2026-05-04 11:13 54.37609 18.47205 457 ft 112 kts 294°
2026-05-04 11:13 54.37834 18.46306 455 ft 45 kts 292°
2026-05-04 11:14 54.37995 18.45846 454 ft 43 kts 318°
2026-05-04 11:14 54.38121 18.45710 454 ft 7 kts 13°
2026-05-04 11:14 54.38137 18.45730 454 ft 3 kts 60°
2026-05-04 11:16 54.38161 18.46230 454 ft 6 kts 113°
2026-05-04 11:16 54.38145 18.46292 455 ft 6 kts 114°
2026-05-04 11:16 54.38135 18.46341 453 ft 0 kts 88°
2026-05-04 11:17 54.38143 18.46355 455 ft 5 kts 42°
2026-05-04 11:17 54.38162 18.46373 454 ft 2 kts 23°
2026-05-04 11:19 54.38176 18.46384 454 ft 0 kts 23°